This is the latest recevied weather packets stored in our database for station/object K0SNA. If no packets are shown the sender has not sent any weather packets the latest 10 day(s).
| Time | Temp. | Humidity | Pressure | Rain* | Wind** | Luminosity | Snow |
|---|---|---|---|---|---|---|---|
| 1777424465 | 10.56° C | 43% | 1016.1 hPa | 0 mm | - | 6 W/m² | - |
| 1777424161 | 10.56° C | 45% | 1015.9 hPa | 0 mm | - | 8 W/m² | - |
| 1777423859 | 11.11° C | 44% | 1015.8 hPa | 0 mm | - | 10 W/m² | - |
| 1777423555 | 11.11° C | 44% | 1015.8 hPa | 0 mm | - | 13 W/m² | - |
| 1777423250 | 11.11° C | 44% | 1015.7 hPa | 0 mm | - | 17 W/m² | - |
| 1777422944 | 11.11° C | 43% | 1015.6 hPa | 0 mm | - | 19 W/m² | - |
| 1777422640 | 11.67° C | 42% | 1015.5 hPa | 0 mm | - | 21 W/m² | - |
| 1777422336 | 11.67° C | 42% | 1015.5 hPa | 0 mm | - | 21 W/m² | - |
| 1777422031 | 11.67° C | 41% | 1015.3 hPa | 0 mm | - | 22 W/m² | - |
| 1777421725 | 11.67° C | 42% | 1015.4 hPa | 0 mm | - | 27 W/m² | - |
| 1777421422 | 11.67° C | 43% | 1015.3 hPa | 0 mm | - | 26 W/m² | - |
| 1777421117 | 11.67° C | 43% | 1015.2 hPa | 0 mm | - | 28 W/m² | - |
| 1777420814 | 11.67° C | 43% | 1015 hPa | 0 mm | - | 34 W/m² | - |
| 1777420510 | 12.22° C | 42% | 1015 hPa | 0 mm | - | 33 W/m² | - |
| 1777420207 | 12.22° C | 42% | 1015.1 hPa | 0 mm | - | 33 W/m² | - |
| 1777419902 | 12.22° C | 41% | 1015.1 hPa | 0 mm | - | 34 W/m² | - |
| 1777419599 | 12.22° C | 41% | 1014.9 hPa | 0 mm | - | 50 W/m² | - |
| 1777419298 | 12.22° C | 40% | 1015 hPa | 0 mm | - | 44 W/m² | - |
| 1777418996 | 12.22° C | 39% | 1015 hPa | 0 mm | - | 38 W/m² | - |
| 1777418690 | 12.78° C | 39% | 1014.8 hPa | 0 mm | - | 51 W/m² | - |
| 1777418387 | 12.78° C | 39% | 1015 hPa | 0 mm | - | 100 W/m² | - |
| 1777418083 | 12.78° C | 38% | 1014.9 hPa | 0 mm | - | 59 W/m² | - |
| 1777417779 | 12.78° C | 41% | 1015 hPa | 0 mm | - | 93 W/m² | - |
| 1777417469 | 12.78° C | 42% | 1015.1 hPa | 0 mm | - | 59 W/m² | - |
| 1777417166 | 12.78° C | 41% | 1015 hPa | 0 mm | - | 84 W/m² | - |
* Rain latest hour (hover to see other rain measurements)
** Current wind speed in m/s (hover to see current wind gust speed)